VIASAT-2 (42740 NORAD) Tracking and Keplerian Element Data

This shows tracking and keplerian element data for the satellite.

Feedback or suggestion? Click here.




ElementValue
Catalog42740
NameVIASAT-2
Epoch Orbit423
Epoch Day202.36346924
Epoch Year2018
RAAN62.1084
Inclination0.0183
Eccentricity4.68E-05
Argument of Perigee38.8236
Mean Anonmoly259.057
Mean Motion1.00272403
Decay Rate-2.8E-06
L11 42740U 17029A 18202.36346924 -.00000280 00000-0 00000-0 0 9997
L22 42740 0.0183 62.1084 0000468 38.8236 259.0570 1.00272403 4236

Live tracking and technical data element details for VIASAT-2 (NORAD 42740). VIASAT-2 can be tracked NOW for your location showing map with azimuth and elevation plus other details from your city location.

Track the satellite on the map from your city or location and see movement details for azimuth, elevation, latitude, longitude, range, height, and movement on the map or in text.







IsCatalogInMostPopularTable: catalog: 42740, numindb: 54
Update: records affected: 1



GetName: 42740 VIASAT-2

Hit Count: updated at: Mon, 23 Jul 2018 07:57:14 GMT